DateTimeUTC,F1_A11,F1_S11,BsB_S11,BsG_S11,BsR_S11,BbsB_S11,BbsG_S11,BbsR_S11,BaB_A11,BaG_A11,BaR_A11,Tu_S11,T_S11,Uu_S11,U_S11,P_S11,T1_A11
2021-05-25T21:00:00Z,00000200,20000000,,,,,,,0000.22,-000.04,-000.02,16.6,23.5,04.0,02.6,0671.0,30.8
2021-05-25T21:01:00Z,00000200,20000000,,,,,,,-000.23,-000.01,0000.35,16.6,23.5,04.0,02.6,0671.0,30.8
2021-05-25T21:02:00Z,00000200,20000000,,,,,,,0000.32,0000.28,-000.20,16.6,23.5,04.0,02.6,0671.1,30.8
2021-05-25T21:03:00Z,00000200,60000000,,,,,,,0000.07,0000.36,0001.32,16.6,23.6,04.0,02.6,0671.1,30.8
2021-05-25T21:04:00Z,00000200,40000000,0016.15,0011.73,0007.20,0001.50,0001.19,0001.02,0000.98,0001.11,0001.33,16.8,23.4,04.2,02.8,0672.0,30.8
2021-05-25T21:05:00Z,00000200,00000000,0017.11,0012.00,0006.89,0002.02,0001.20,0000.96,0000.90,0001.54,0001.81,16.9,23.4,04.3,02.9,0672.1,30.8
2021-05-25T21:06:00Z,00000200,00000000,0016.86,0011.66,0007.03,0001.30,0001.13,0000.95,0000.53,0000.54,0001.03,16.9,23.4,04.2,02.8,0672.1,30.8
2021-05-25T21:07:00Z,00000200,00000000,0016.82,0011.65,0007.18,0001.48,0000.84,0000.61,0000.99,0001.18,0001.48,16.9,23.4,04.3,02.9,0672.1,30.8
2021-05-25T21:08:00Z,00000200,00000000,0016.70,0011.99,0007.44,0001.70,0001.36,0000.59,0000.55,0000.77,0001.75,16.9,23.4,04.2,02.8,0672.1,30.8
2021-05-25T21:09:00Z,00000200,00000000,0017.80,0012.29,0007.32,0002.00,0001.29,0000.76,0000.66,0000.76,0001.25,16.9,23.4,04.3,02.9,0672.1,30.8
2021-05-25T21:10:00Z,00000200,00000000,0017.58,0011.86,0007.57,0001.73,0001.34,0001.28,0000.69,0001.36,0001.36,16.9,23.3,04.3,02.9,0672.1,30.8
2021-05-25T21:11:00Z,00000200,00000000,0017.52,0012.29,0007.85,0001.56,0000.72,0001.28,0000.75,0001.16,0002.01,16.9,23.3,04.4,03.0,0671.9,30.8
2021-05-25T21:12:00Z,00000200,00000000,0018.05,0012.82,0007.98,0001.40,0001.07,0000.95,0000.97,0000.69,0001.09,16.9,23.3,04.3,02.9,0672.0,30.8
2021-05-25T21:13:00Z,00000200,00000000,0018.46,0012.69,0008.09,0001.64,0001.26,0001.21,0000.80,0000.96,0001.96,16.9,23.3,04.3,02.9,0672.0,30.8
2021-05-25T21:14:00Z,00000200,00000000,0018.73,0012.96,0008.09,0001.92,0001.26,0000.76,0000.67,0001.35,0001.90,16.8,23.3,04.4,03.0,0671.9,30.8
2021-05-25T21:15:00Z,00000200,00000000,0018.58,0013.14,0008.12,0001.91,0001.25,0001.02,0001.08,0001.39,0001.83,16.9,23.3,04.4,02.9,0671.9,30.8
2021-05-25T21:16:00Z,00000200,00000000,0019.70,0013.20,0008.23,0002.05,0001.45,0000.98,0001.02,0000.71,0001.61,16.9,23.3,04.4,02.9,0671.9,30.8
2021-05-25T21:17:00Z,00000200,00000000,0018.86,0014.20,0008.56,0001.47,0001.28,0001.29,0000.41,0001.24,0001.67,16.9,23.4,04.3,02.9,0672.0,30.8
2021-05-25T21:18:00Z,00000200,00000000,0019.79,0014.10,0008.27,0001.27,0001.27,0001.10,0000.62,0000.83,0001.29,17.0,23.4,04.4,03.0,0672.0,30.8
2021-05-25T21:19:00Z,00000200,00000000,0019.02,0013.87,0008.60,0001.73,0001.33,0001.23,0001.08,0001.18,0001.89,17.0,23.4,04.4,02.9,0672.0,30.8
2021-05-25T21:20:00Z,00000200,00000000,0020.46,0014.09,0008.88,0001.97,0001.28,0001.12,0000.55,0000.80,0001.50,17.0,23.4,04.4,02.9,0672.0,30.8
2021-05-25T21:21:00Z,00000200,00000000,0019.69,0014.30,0009.38,0001.92,0001.22,0001.13,0000.53,0001.21,0001.80,17.0,23.4,04.3,02.9,0672.0,30.8
2021-05-25T21:22:00Z,00000200,00000000,0020.40,0014.10,0008.96,0001.99,0001.15,0001.25,0001.11,0000.93,0001.57,17.0,23.4,04.3,02.9,0671.9,30.8
2021-05-25T21:23:00Z,00000200,00000000,0021.75,0014.51,0008.71,0002.00,0001.57,0001.17,0000.47,0001.22,0001.58,16.9,23.4,04.3,02.9,0672.0,30.8
2021-05-25T21:24:00Z,00000200,00000000,0020.50,0014.20,0009.17,0002.31,0001.58,0001.37,0000.93,0001.15,0001.80,16.9,23.3,04.4,03.0,0672.0,30.8
2021-05-25T21:25:00Z,00000200,00000000,0020.29,0014.40,0008.79,0001.47,0001.34,0001.36,0000.39,0000.78,0001.50,16.9,23.3,04.3,02.9,0671.9,30.8
2021-05-25T21:26:00Z,00000200,00000000,0019.43,0014.54,0008.86,0002.50,0001.34,0001.09,0001.05,0001.19,0001.66,16.9,23.3,04.4,03.0,0671.9,30.8
2021-05-25T21:27:00Z,00000200,00000000,0020.56,0014.42,0009.15,0002.25,0001.47,0001.28,0000.72,0001.39,0002.05,16.9,23.3,04.4,03.0,0672.0,30.8
2021-05-25T21:28:00Z,00000200,00000000,0019.57,0014.16,0008.48,0001.92,0001.46,0001.00,0000.75,0000.99,0001.82,16.9,23.3,04.4,03.0,0671.9,30.8
2021-05-25T21:29:00Z,00000200,00000000,0020.74,0014.47,0008.80,0002.06,0001.47,0001.12,0000.87,0000.92,0001.50,16.9,23.3,04.4,02.9,0671.9,30.8
2021-05-25T21:30:00Z,00000200,00000000,0020.66,0014.21,0008.96,0001.66,0001.41,0000.95,0000.58,0001.30,0001.72,16.9,23.3,04.3,02.9,0671.9,30.8
2021-05-25T21:31:00Z,00000200,00000000,0020.83,0014.66,0009.26,0001.95,0001.57,0001.12,0001.18,0000.82,0001.97,16.9,23.3,04.5,03.0,0672.0,30.8
2021-05-25T21:32:00Z,00000200,00000000,0020.07,0014.44,0008.39,0002.07,0001.19,0000.97,0000.34,0001.22,0001.89,16.9,23.3,04.4,02.9,0672.0,30.8
2021-05-25T21:33:00Z,00000200,00000000,0021.50,0014.14,0008.56,0001.84,0001.22,0001.11,0000.68,0000.72,0001.23,17.0,23.4,04.4,03.0,0672.0,30.8
2021-05-25T21:34:00Z,00000200,00000000,0020.33,0014.43,0008.70,0001.65,0001.29,0001.24,0000.99,0001.59,0002.02,17.0,23.4,04.4,03.0,0671.9,30.8
2021-05-25T21:35:00Z,00000200,00000000,0020.65,0014.27,0008.90,0001.97,0001.26,0001.31,0000.52,0000.70,0001.48,17.0,23.4,04.4,02.9,0671.9,30.8
2021-05-25T21:36:00Z,00000200,00000000,0019.94,0014.38,0009.01,0001.97,0001.40,0001.12,0000.58,0001.03,0001.64,17.0,23.4,04.4,02.9,0671.9,30.8
2021-05-25T21:37:00Z,00000200,00000000,0019.81,0014.10,0008.59,0001.99,0001.41,0000.95,0000.79,0000.98,0001.65,17.0,23.4,04.3,02.9,0672.0,30.8
2021-05-25T21:38:00Z,00000200,00000000,0019.95,0014.59,0008.90,0001.64,0001.46,0001.44,0000.68,0000.84,0001.60,17.0,23.4,04.4,03.0,0672.0,30.8
2021-05-25T21:39:00Z,00000200,00000000,0020.08,0014.40,0008.92,0002.01,0001.42,0001.11,0000.60,0001.03,0001.56,17.0,23.3,04.3,02.9,0672.0,30.8
2021-05-25T21:40:00Z,00000200,00000000,0020.18,0014.43,0008.77,0002.72,0001.77,0001.27,0000.58,0001.00,0001.68,17.0,23.3,04.3,02.9,0672.0,30.8
2021-05-25T21:41:00Z,00000200,00000000,0020.32,0014.25,0008.98,0002.37,0001.43,0001.03,0000.73,0000.79,0001.51,16.9,23.3,04.3,02.9,0672.0,30.8
2021-05-25T21:42:00Z,00000200,00000000,0020.07,0014.09,0008.62,0001.55,0001.53,0001.08,0000.47,0001.13,0001.48,16.9,23.3,04.3,02.9,0672.0,30.8
2021-05-25T21:43:00Z,00000200,00000000,0019.51,0014.30,0008.72,0001.96,0001.36,0001.11,0001.09,0001.00,0001.84,16.9,23.3,04.2,02.8,0672.0,30.8
2021-05-25T21:44:00Z,00000200,00000000,0020.03,0013.64,0008.73,0001.31,0001.30,0001.54,0000.80,0001.15,0001.59,16.9,23.3,04.3,02.9,0672.0,30.8
2021-05-25T21:45:00Z,00000200,00000000,0019.47,0014.20,0008.83,0001.87,0001.32,0001.24,0000.60,0001.13,0001.89,16.9,23.3,04.4,03.0,0671.9,30.8
2021-05-25T21:46:00Z,00000200,00000000,0019.89,0014.31,0008.60,0002.21,0001.57,0000.99,0001.16,0001.38,0001.47,16.9,23.3,04.3,02.9,0671.9,30.8
2021-05-25T21:47:00Z,00000200,00000000,0019.24,0013.89,0008.64,0001.93,0001.47,0000.93,-000.10,0000.80,0001.40,17.0,23.4,04.3,02.9,0671.9,30.8
2021-05-25T21:48:00Z,00000200,00000000,0018.90,0013.78,0008.46,0002.21,0001.22,0001.16,0000.72,0001.09,0001.80,17.0,23.4,04.4,02.9,0671.9,30.8
2021-05-25T21:49:00Z,00000200,00000000,0019.46,0013.99,0008.40,0001.77,0001.35,0001.02,0001.39,0001.06,0001.92,17.0,23.4,04.4,03.0,0671.9,30.8
2021-05-25T21:50:00Z,00000200,00000000,0019.30,0013.44,0008.55,0001.35,0001.35,0001.45,0000.48,0000.77,0001.85,17.0,23.3,04.4,02.9,0671.8,30.8
2021-05-25T21:51:00Z,00000200,00000000,0020.16,0013.46,0008.39,0001.70,0001.44,0001.32,0000.56,0001.13,0001.48,17.0,23.3,04.4,03.0,0671.9,30.8
2021-05-25T21:52:00Z,00000200,00000000,0019.65,0014.00,0008.29,0001.31,0001.28,0001.00,0000.69,0000.75,0001.23,17.0,23.3,04.4,02.9,0671.9,30.8
2021-05-25T21:53:00Z,00000200,00000000,0019.58,0013.36,0008.56,0001.84,0001.33,0001.06,0000.85,0000.81,0001.52,16.9,23.3,04.4,03.0,0671.9,30.8
2021-05-25T21:54:00Z,00000200,00000000,0019.33,0013.95,0008.31,0002.21,0001.36,0000.84,0000.64,0001.12,0001.79,16.9,23.3,04.3,02.9,0672.0,30.8
2021-05-25T21:55:00Z,00000200,00000000,0019.56,0013.87,0008.79,0002.42,0001.39,0001.35,0000.45,0001.21,0001.51,16.9,23.3,04.3,02.9,0672.0,30.8
2021-05-25T21:56:00Z,00000200,00000000,0019.99,0013.85,0008.76,0002.03,0001.13,0001.18,0000.76,0000.81,0001.56,16.9,23.3,04.3,02.9,0672.1,30.8
2021-05-25T21:57:00Z,00000200,40000000,,,,,,,-000.02,0000.47,0000.76,16.9,23.3,04.5,03.0,0672.1,30.8
2021-05-25T21:58:00Z,00000200,60000000,,,,,,,0000.06,-000.24,-000.28,16.6,23.4,04.3,02.8,0671.1,30.8
2021-05-25T21:59:00Z,00000200,20000000,,,,,,,0000.04,-000.01,0000.34,16.6,23.5,04.3,02.8,0670.9,30.8
